TimeCDT,TemperatureF,Dew PointF,Humidity,Sea Level PressureIn,VisibilityMPH,Wind Direction,Wind SpeedMPH,Gust SpeedMPH,PrecipitationIn,Events,Conditions,WindDirDegrees,DateUTC
1:52 AM,61.0,55.0,81,30.11,10.0,SSE,9.2,-,N/A,,Clear,150,2011-10-09 06:52:00
2:52 AM,63.0,54.0,72,30.13,10.0,South,10.4,-,N/A,,Partly Cloudy,170,2011-10-09 07:52:00
3:52 AM,63.0,53.1,70,30.13,10.0,South,12.7,-,N/A,,Partly Cloudy,170,2011-10-09 08:52:00
4:52 AM,61.0,53.1,75,30.14,10.0,South,8.1,-,N/A,,Scattered Clouds,180,2011-10-09 09:52:00
5:52 AM,57.0,52.0,83,30.17,10.0,West,5.8,-,N/A,,Clear,260,2011-10-09 10:52:00
6:52 AM,54.0,50.0,86,30.17,10.0,South,5.8,-,N/A,,Clear,180,2011-10-09 11:52:00
7:52 AM,54.0,50.0,86,30.19,9.0,South,6.9,-,N/A,,Clear,170,2011-10-09 12:52:00
8:52 AM,59.0,52.0,78,30.19,10.0,SSE,8.1,-,N/A,,Clear,160,2011-10-09 13:52:00
9:52 AM,63.0,53.1,70,30.20,10.0,SSE,10.4,-,N/A,,Partly Cloudy,160,2011-10-09 14:52:00
10:52 AM,68.0,54.0,61,30.19,10.0,SSE,10.4,-,N/A,,Clear,160,2011-10-09 15:52:00
11:52 AM,73.0,55.0,53,30.17,10.0,South,11.5,-,N/A,,Clear,170,2011-10-09 16:52:00
12:52 PM,75.9,54.0,46,30.15,10.0,South,9.2,18.4,N/A,,Clear,180,2011-10-09 17:52:00
1:52 PM,78.1,54.0,43,30.12,10.0,South,13.8,-,N/A,,Clear,170,2011-10-09 18:52:00
2:52 PM,78.1,50.0,37,30.09,10.0,SSE,13.8,-,N/A,,Partly Cloudy,150,2011-10-09 19:52:00
3:52 PM,78.1,46.9,33,30.08,10.0,SSE,15.0,-,N/A,,Scattered Clouds,160,2011-10-09 20:52:00
4:52 PM,79.0,46.9,32,30.08,10.0,SSE,16.1,24.2,N/A,,Clear,160,2011-10-09 21:52:00
5:52 PM,75.9,46.9,36,30.07,10.0,SSE,18.4,-,N/A,,Clear,150,2011-10-09 22:52:00
6:52 PM,72.0,48.0,43,30.08,10.0,SE,13.8,-,N/A,,Clear,140,2011-10-09 23:52:00
7:52 PM,68.0,48.0,49,30.10,10.0,SE,10.4,-,N/A,,Clear,140,2011-10-10 00:52:00
8:52 PM,64.9,48.0,54,30.09,10.0,SE,11.5,-,N/A,,Clear,130,2011-10-10 01:52:00
9:52 PM,64.9,48.9,56,30.08,10.0,SE,15.0,-,N/A,,Clear,140,2011-10-10 02:52:00
10:52 PM,64.0,48.9,58,30.07,10.0,SE,16.1,-,N/A,,Clear,140,2011-10-10 03:52:00
11:52 PM,64.0,48.9,58,30.06,10.0,SSE,17.3,-,N/A,,Clear,150,2011-10-10 04:52:00